Regional Weather Roundup
Issued by NWS Upton, NY

Current Version | Previous Version | Graphics & Text | Print | Product List | Glossary Off
Versions: 1 2 3 4 5 6 7 8 9 10 11 12 13 14 15 16 17 18 19 20 21 22 23 24 25 26 27 28 29 30 31 32 33 34 35 36 37 38 39 40 41 42 43 44 45 46 47 48 49 50

667
ASUS41 KOKX 300405
RWROKX

REGIONAL WEATHER ROUNDUP
NATIONAL WEATHER SERVICE NEW YORK NY
1200 AM EDT MON MAY 30 2016

NOTE: "FAIR" INDICATES FEW OR NO CLOUDS BELOW 12,000 FEET WITH NO
SIGNIFICANT WEATHER AND/OR OBSTRUCTIONS TO VISIBILITY.

NYZ071-072-176-178-NJZ106-104-300500-
NEW YORK CITY METRO AREA


CITY           SKY/WX    TMP DP  RH WIND       PRES   REMARKS
CENTRAL PARK   CLOUDY    71  65  81 CALM      30.08F
LAGUARDIA APRT CLOUDY    71  70  96 S5        30.05F
KENNEDY INTL   LGT RAIN  67  65  93 S10       30.08S VSB 1/2
NEWARK/LIBERTY CLOUDY    76  69  79 S7        30.04F
BRNX BOT. GARD   N/A     68  64  88 SE3       30.08R
TETERBORO      LGT RAIN  75  65  70 S6        30.04S
$$

NYZ177-179-078>081-300500-
LONG ISLAND NEW YORK

CITY           SKY/WX    TMP DP  RH WIND       PRES   REMARKS
FARMINGDALE    CLOUDY    68  66  93 S9        30.08F
ISLIP          CLOUDY    67  65  93 S8        30.08F FOG
SHIRLEY        CLOUDY    67  66  97 S8        30.09F FOG
RIVERHEAD        N/A     66  64  94 SW1       30.08S
WESTHAMPTON    CLOUDY    64  63  96 S5        30.11S FOG
EAST HAMPTON   CLOUDY    64  63  98 S3        30.10S FOG
MONTAUK POINT    N/A     62  62 100 VRB3      30.12F
$$

NYZ052-065-067-300500-
HUDSON VALLEY

CITY           SKY/WX    TMP DP  RH WIND       PRES   REMARKS
WHITE PLAINS   CLOUDY    69  66  90 SE6       30.07S
NEWBURGH       CLOUDY    72  68  88 VRB7      30.05F
MONTGOMERY     MOCLDY    71  66  84 CALM      30.04S
POUGHKEEPSIE   CLOUDY    75  66  73 SE6       30.03S
ALBANY         CLOUDY    70  66  87 S5        30.01F
$$

NJZ001-105-106-008-010-013-015-019>022-104-300500-
NEW JERSEY

CITY           SKY/WX    TMP DP  RH WIND       PRES   REMARKS
NEWARK/LIBERTY CLOUDY    76  69  79 S7        30.04F
TETERBORO      LGT RAIN  75  65  70 S6        30.04S
CALDWELL       CLOUDY    76  69  79 SW3       30.05S
MORRISTOWN     LGT RAIN  75  66  73 S3          N/A
SOMERVILLE     LGT RAIN  72  68  87 CALM      30.04S
SUSSEX         CLOUDY    75  65  70 S7        30.05S
ANDOVER          N/A     72  69  90 CALM      30.07R
TRENTON        RAIN      69  66  90 CALM      30.05F FOG
MILLVILLE      LGT RAIN  71  69  93 S3        30.06F
ATLANTIC CITY  CLOUDY    70  68  93 S8        30.07F
WRIGHTSTOWN    LGT RAIN  73  71  94 S6        30.03F
TOMS RIVER     CLOUDY    72  66  83 S8        30.07F
BELMAR         CLOUDY    72  70  93 S3        30.07F
$$

PAZ047>061-062-071-300500-
EASTERN PENNSYLVANIA

CITY           SKY/WX    TMP DP  RH WIND       PRES   REMARKS
PHILADELPHIA   LGT RAIN  71  68  90 W6        30.07F FOG
ALLENTOWN      LGT RAIN  73  69  87 S5        30.06S
SCRANTON       LGT RAIN  71  63  75 SW7       30.06R
$$

CTZ002-004>006-009-010-012-RIZ004-006-007-MAZ004-011-015-300500-
SOUTHERN NEW ENGLAND
 IN CT

CITY           SKY/WX    TMP DP  RH WIND       PRES   REMARKS
BRADLEY INTL   CLOUDY    72  66  81 S7        30.07F
HARTFORD       CLOUDY    74  68  81 S8        30.07F
DANBURY        LGT RAIN  69  66  90 CALM      30.08F
WTRBRY/OXFORD    N/A     68  64  88 S9        30.10S
BRIDGEPORT     FOG       67  66  97 SE7       30.08S VSB 3/4
MERIDEN        CLOUDY    71  67  87 S8        30.08F
NEW HAVEN      FOG       65  64  97 SE6       30.08F VSB 1/2
CHESTER        FOG       66  66 100 SE5       30.10F VSB 1/4
GROTON         FOG       63  63 100 E9        30.10S VSB 3/4
WILLIMANTIC    CLOUDY    71  67  87 SE3       30.09F FOG

 IN RI

CITY           SKY/WX    TMP DP  RH WIND       PRES   REMARKS
PROVIDENCE     DRIZZLE   57  55  93 NE6       30.13F FOG
BLOCK ISLAND   LGT RAIN  64  64 100 S7        30.11F VSB 3/4
WESTERLY       LGT RAIN  63  61  93 E6        30.11F VSB 3/4

 IN MA

CITY           SKY/WX    TMP DP  RH WIND       PRES   REMARKS
BOSTON         DRIZZLE   54  52  94 E5        30.14F FOG
WORCESTER      FOG       53  52  96 E3        30.13S VSB 1/4
WESTFIELD      CLOUDY    65  57  75 N7        30.08F
PROVINCETOWN   FOG       53  53 100 NE3       30.13F VSB 3/4
NANTUCKET      FOG       60  58  92 E7        30.13F VSB 3/4
$$

ANZ330-335-338-340-345-350-353-355-300500-
COASTAL MARINE OBSERVATIONS


STATION/POSITION TIME  SKY/WX   TEMP    WIND        PRES    VSBY  WAVE
                                AIR SEA DIR/SP/G                  HT/PER
                 (UTC)          (F)     (DEG/KT/KT) (MB)    (MI)  (FT/S)
NY HARB ENTRANCE 0250            61 58  190/ 12/ 12 1017.9          3/ 8
20S FIRE ISLAND  0250            63 62  180/ 12/ 12 1018.4          3/ 8
GREAT SOUTH BAY  0315            64 71  180/ 10/ 12   N/A
23 SSW MONTAUK P 0350            62 60  170/  8/ 10 1018.7          3/ 8
15 E BARNEGAT LI 0322               61                N/A           3/ 8
HUDSON CANYON    0250            65 60              1019.7          3/ 8
KINGS POINT      0300            67 61                N/A
EXECUTION ROCKS  NOT AVBL
CENTRAL LI SOUND 0300            65     130/  6/  8   N/A           1
EASTERN LI SOUND 0300            59 54   90/  4/  6   N/A
ROBBINS REEF     0312            68                 1017.1
$$


>>>>>>>>>>>>>>>>>>>>>>>>>>>> KEY <<<<<<<<<<<<<<<<<<<<<<<<<<<
>                                                          <
>     SKY/WX - SKY CONDITION/PRESENT WEATHER               <
>     TMP    - TEMPERATURE IN FAHRENHEIT                   <
>     DP     - DEWPOINT IN FAHRENHEIT                      <
>     RH     - RELATIVE HUMIDITY IN PERCENT                <
>     WIND   - DIRECTION AND SPEED IN MPH                  <
>     PRES   - MEAN SEA LEVEL PRESSURE IN INCHES OF HG     <
>     WCI    - WIND CHILL INDEX                            <
>     VSB    - VISIBILITY IN MILES                         <
>     HX     - HEAT INDEX                                  <
>     TC     - TEMPERATURE IN CELSIUS                      <
>     VRB    - VARIABLE WIND DIRECTION                     <
>                                                          <
>>>>>>>>>>>>>>>>>>>>>>>>>>>> KEY <<<<<<<<<<<<<<<<<<<<<<<<<<<






USA.gov is the U.S. government's official web portal to all federal, state and local government web resources and services.